Regional Weather Roundup
Issued by NWS

Home | Current Version | Previous Version | Text Only | Print | Product List | Glossary Off
Versions: 1 2 3 4 5 6 7 8 9 10 11 12 13 14 15 16 17 18 19 20 21 22 23 24 25 26 27 28 29 30 31 32 33 34 35 36 37 38 39 40 41 42 43 44 45 46 47 48 49 50

000
ASUS43 KDTX 210110
RWRMI
MICHIGAN HOURLY REGIONAL WEATHER ROUNDUP
NATIONAL WEATHER SERVICE DETROIT/PONTIAC MI
900 PM EDT WED AUG 20 2014

NOTE: "FAIR" INDICATES FEW OR NO CLOUDS BELOW 12,000 FEET WITH NO
SIGNIFICANT WEATHER AND/OR OBSTRUCTION TO VISIBILITY.

MIZ047>049-052>055-059>063-066>070-074>076-081>083-210200-
SOUTHEAST LOWER MICHIGAN

CITY           SKY/WX    TMP DP  RH WIND       PRES   REMARKS
ADRIAN         CLEAR     73  65  75 CALM      29.92R
ALMA           CLEAR     68  63  83 NW3       29.91R
ANN ARBOR      CLEAR     71  62  73 CALM      29.91R
BAD AXE        RAIN      68  67  97 SW7       29.90R
DETROIT CITY   PTCLDY    80  61  52 NW6       29.89R
DETROIT        PTCLDY    76  63  64 W7        29.90R
FLINT          CLEAR     73  64  73 NW3       29.90R
GROSSE ILE     CLEAR     77  64  65 CALM      29.89R
HILLSDALE      CLEAR     69  67  94 CALM      29.94R
HOWELL         CLEAR     71  63  76 CALM      29.91R

CITY           SKY/WX    TMP DP  RH WIND       PRES   REMARKS
JACKSON        CLEAR     70  64  81 CALM      29.93R
LAMBERTVILLE   CLEAR     72  68  88 CALM      29.91R
LANSING        CLEAR     72  63  73 W3        29.92R
LAPEER         NOT AVBL
MASON          CLEAR     72  63  72 CALM      29.92R
MT. CLEMENS    PTCLDY    74  65  73 N9        29.89R
PONTIAC        PTCLDY    74  63  68 W6        29.90R
PORT HOPE        N/A     70  66  87 CALM      29.88R
PORT HURON     LGT RAIN  70  66  88 CALM      29.90R
TRI CITIES     CLEAR     72  62  71 NW8       29.90R
YPSILANTI      CLEAR     78  64  61 NW3       29.91R
$$
MIZ043>046-050>051-056>058-064>065-071>073-077>080-210200-
SOUTHWEST LOWER MICHIGAN

CITY           SKY/WX    TMP DP  RH WIND       PRES   REMARKS
BATTLE CREEK   CLEAR     75  64  68 N3        29.93R
BENTON HARBOR  PTCLDY    71  66  84 CALM      29.89S
BIG RAPIDS     CLEAR     66  64  91 NW8       29.92S
COLDWATER      CLEAR     72  68  87 CALM      29.93R
HOLLAND        CLEAR     75  65  70 CALM      29.91R
GRAND RAPIDS   PTCLDY    74  66  76 NW5       29.91R
KALAMAZOO      CLEAR     76  65  68 CALM      29.92R
MARSHALL       CLEAR     69  64  83 CALM      29.92R
MUSKEGON       PTCLDY    71  63  75 W3        29.91R
$$
MIZ016>042-210200-
NORTHERN LOWER MICHIGAN

CITY           SKY/WX    TMP DP  RH WIND       PRES   REMARKS
ALPENA         CLOUDY    66  64  93 N6        29.91R
BEAVER ISLAND  CLOUDY    64  62  94 W3        29.93S
BELLAIRE       CLOUDY    65  60  86 CALM      29.93S
CADILLAC       MOCLDY    63  62  94 N5        29.94R
CHARLEVOIX     DRIZZLE   64  63  98 W5        29.96S
FRANKFORT      CLEAR     66  60  81 CALM      29.92F
GAYLORD        CLOUDY    62  59  90 W7        29.94R
GRAYLING       CLOUDY    64  61  90 NW6       29.94S
HARBOR SPRINGS CLOUDY    63  62  95 CALM      29.93R FOG
HOUGHTON LAKE  PTCLDY    65  61  87 NW5       29.93S
MANISTEE       CLEAR     64  57  77 CALM      29.93S
OSCODA         HVY RAIN  67  66  96 NE13      29.89R VSB 3/4
PELLSTON       CLOUDY    64  63  96 W6        29.92R FOG
TRAVERSE CITY  CLOUDY    67  59  75 W7        29.93R
$$
MIZ007>008-015-210200-
EASTERN UPPER MICHIGAN

CITY           SKY/WX    TMP DP  RH WIND       PRES   REMARKS
KINROSS        CLOUDY    61  61 100 NW3       29.91R
MACKINAC ISLAN CLOUDY    62  62 100 W5        29.91R FOG
NEWBERRY       CLOUDY    61  60  94 NW6       29.93R
S. S. MARIE    CLOUDY    62  61  96 W3        29.90R FOG
$$
MIZ004>006-011>014-085-210200-
CENTRAL UPPER MICHIGAN

CITY           SKY/WX    TMP DP  RH WIND       PRES   REMARKS
MANISTIQUE     CLOUDY    63  60  91 N5        29.92S
ESCANABA       CLOUDY    64  61  88 CALM      29.92S
MENOMINEE      MOCLDY    66  63  88 CALM      29.91R
SAWYER-GWINN   FOG       61  59  94 NE5       29.94R VSB 1/4
$$
MIZ001>003-009>011-084-210200-
WESTERN UPPER MICHIGAN

CITY           SKY/WX    TMP DP  RH WIND       PRES   REMARKS
IRON MOUNTAIN  CLOUDY    67  61  81 N6        29.93S
HOUGHTON       CLOUDY    60  58  92 NW3       29.94S
COPPER HARBOR    N/A     55  54  96 CALM      29.94R
IRONWOOD       CLOUDY    64  61  88 CALM      29.92S
$$

ABBREVIATIONS USED IN REMARKS
   TC - TEMPERATURE IN CELSIUS
  WCI - WIND CHILL INDEX
   HX - HEAT INDEX
  VSB - VISIBILITY



USA.gov is the U.S. government's official web portal to all federal, state and local government web resources and services.